彩虹 21星 (RADUGA 21)

导读

RADUGA 21(“虹”21号)是独联体(CIS)继承自苏联航天项目的通信卫星,属于俄罗斯“虹”(Raduga)第一代地球同步轨道通信卫星系列,于1987年12月10日发射升空。该系列卫星由苏联研制,主要承担东半球(极区除外)军事通信、民用电视转播与电报电话业务,卫星基于KAUR-3平台建造,配备C频段转发器,是苏联早期重要的同步轨道通信卫星,服务军民多领域通信需求。

基本信息
目录编号:
18631
目录名称:
RADUGA 21
国际标识:
1987-100A
轨道中心:
EARTH
卫星名称:
彩虹 21星
卫星全名:
彩虹 21星 (RADUGA 21)
卫星状态:
在轨 (已飞行14159 天)
发射日期:
1987-12-10 UTC
国别 :
俄罗斯(独联体) (CIS)
星等 :
--
该卫星已列入 空间交会检测服务 Space Conjunction Data Service (SCDS) ,当前飞行风险评估等级: 无高风险
轨道信息
数据来源 国际轨道数据 AOE轨道数据
星历时间 2026-09-15T21:26:40+0800
10小时前
查看轨道信息
2026-09-12T11:00:00+0800
3天前
查看轨道信息
半长轴 42148.701km 42148.701km
偏心率 0.000177 0.0001495
轨道倾角 11.179° 11.184°
近地点辐角 288.323° 288.151°
升交点赤经 324.652° 324.675°
平近点角 237.997° 77.376°
近地点 35763.103km 35764.262km
远地点 35778.025km 35776.866km
周期 1435.278分钟 1435.278分钟
每日圈数 1.00329 1.00329
详细信息
平衡模式:
三轴稳定
覆盖范围:
全球
运营商:
俄罗斯国家航天集团
运营商所在国:
俄罗斯
制造商(研发单位):
普里克拉德诺伊·梅哈尼基设计局
制造商所在国:
俄罗斯联邦
使用方式:
暂无
卫星简介
彩虹卫星(Raduga, Gran)是苏联用于军事和通信目的的一系列地球静止通信卫星。彩虹卫星旨在支持军事通信、Orbita地面电视网络,并在整个东半球(极地地区除外)提供电话和电报通信。该卫星已退役。
2D轨道图
3D轨道图
轨道高度分析图
轨道倾角分析图
轨道综合分析图
查看轨道综合分析图
与全量物体交会距离演化趋势 订阅飞行安全评估服务
与全量物体交会风险概率演化趋势 订阅飞行安全评估服务